Back to catalog

ELEKTRO-L 5

AliveWeatherGEO
NORAD 67756·PAYLOAD·🇷🇺 Russia

Launched Feb 12, 2026 from Baikonur Cosmodrome

Loading…

TLE

FreshSource: Space-Track

Epoch: Sep 13, 2026, 19:24 UTC

1 67756U 26028A   26256.80886220 -.00000107  00000-0  00000-0 0  9993
2 67756   0.1831   8.8885 0002384 158.2688 192.8525  1.00270849  2137

Track ELEKTRO-L 5 in real time with AllMySat

Download on the App Store